Date,TemperatureHighF,TemperatureAvgF,TemperatureLowF,DewpointHighF,DewpointAvgF,DewpointLowF,HumidityHigh,HumidityAvg,HumidityLow,PressureMaxIn,PressureMinIn,WindSpeedMaxMPH,WindSpeedAvgMPH,GustSpeedMaxMPH,PrecipitationSumIn
2013-8-1,91,77,67,77,70,64,99,82,44,29.99,29.91,7,2,0,0.00
2013-8-2,89,76,62,78,70,19,99,86,15,29.96,29.85,5,1,0,0.03
2013-8-3,91,77,70,82,73,1,99,89,6,30.02,29.84,6,1,0,0.48
2013-8-4,85,74,64,71,68,63,99,83,55,30.10,30.00,5,2,0,0.00
2013-8-5,79,69,62,74,68,61,99,96,73,30.03,29.85,4,1,0,0.36
2013-8-6,90,77,70,82,75,70,99,94,68,29.87,29.80,5,1,0,0.00
2013-8-7,89,77,70,82,73,-21,99,91,2,29.86,29.78,8,1,0,0.04
2013-8-8,91,77,68,84,70,-35,99,89,1,29.91,29.78,4,1,0,0.77
2013-8-9,86,77,73,82,76,73,99,98,83,29.97,29.83,5,1,0,0.58
2013-8-10,92,79,71,77,67,-20,99,75,2,30.05,29.96,4,1,0,0.00
2013-8-11,92,79,66,76,73,66,99,84,59,30.06,29.97,5,1,0,0.00
2013-8-12,88,78,70,84,77,70,99,97,86,30.00,29.81,5,1,0,0.18
2013-8-13,85,76,66,78,62,1,99,71,6,30.01,29.85,7,3,0,0.00
2013-8-14,80,67,56,66,59,56,99,79,47,30.10,30.02,8,2,0,0.00
2013-8-15,80,65,53,65,59,52,99,84,53,30.08,29.97,6,1,0,0.00
2013-8-16,81,69,54,69,63,53,99,84,60,30.04,30.00,6,1,0,0.00
2013-8-17,82,71,66,76,69,66,99,94,69,30.10,30.01,6,2,0,0.01
2013-8-18,88,74,65,76,66,-37,99,81,5,30.10,29.99,5,1,0,0.07
2013-8-19,90,76,65,80,67,-38,99,81,1,30.07,29.96,5,1,0,0.00
2013-8-20,94,79,67,84,69,-36,99,78,1,30.06,29.97,5,1,0,0.00
2013-8-21,95,80,68,83,72,22,99,80,17,30.09,29.98,5,1,0,0.00
2013-8-22,94,82,69,83,74,12,99,81,10,30.06,29.93,6,1,0,0.00
2013-8-23,93,81,71,82,72,-34,99,82,1,30.03,29.95,6,2,0,0.00
2013-8-24,92,79,66,82,70,-6,99,80,4,30.14,30.03,5,1,0,0.00
2013-8-25,94,79,63,83,70,-39,99,80,1,30.21,30.10,5,1,0,0.00
2013-8-26,93,82,71,84,74,-3,99,82,5,30.18,30.01,6,2,0,0.00
2013-8-27,93,82,72,83,78,72,99,89,67,30.03,29.92,7,2,0,0.00
2013-8-28,98,84,70,83,75,70,99,79,47,29.96,29.89,8,2,0,0.00
2013-8-29,100,85,74,82,77,73,99,80,49,29.95,29.86,7,2,0,0.00
2013-8-30,101,86,72,87,76,-18,99,79,2,29.89,29.76,5,1,0,0.00
2013-8-31,100,88,77,85,80,77,99,81,49,29.79,29.66,7,2,0,0.00